星链-6334 (STARLINK-6334 )

导读

STARLINK-6334是美国SpaceX公司星链星座中的第二代低轨通信卫星,于2023年7月7日发射。作为星链全球互联网组网的组成部分,它运行在近地轨道,为全球范围提供高速低时延宽带互联网接入,尤其服务网络覆盖匮乏的偏远地区。卫星配备自动避撞系统,设计注重太空可持续性,旨在减少轨道碎片风险,助力SpaceX构建全球覆盖的巨型卫星通信网络。

Basic Information
目录编号:
57238
目录名称:
STARLINK-6334
国际标识:
2023-094W
轨道中心:
EARTH
卫星名称:
星链-6334
卫星全名:
星链-6334 (STARLINK-6334 )
卫星状态:
在轨 (已飞行1073 天)
发射日期:
2023-07-07 UTC
国别 :
美国 (US)
星等 :
--
Orbit Information
数据来源 国际轨道数据 AOE轨道数据
星历时间 2026-06-14T16:58:33+0800
13小时前
查看轨道信息
2026-06-11T06:00:00+0800
4天前
查看轨道信息
半长轴 6861.226km 6861.164km
偏心率 0.0001028 0.0001395
轨道倾角 43.003° 43.000°
近地点辐角 267.812° 248.620°
升交点赤经 194.118° 213.646°
平近点角 92.262° 156.424°
近地点 482.383km 482.069km
远地点 483.795km 483.985km
周期 94.268分钟 94.266分钟
每日圈数 15.275669 15.275877
Detailed Information
固有亮度:
5
最大亮度:
2.4
卫星平台:
Starlink v1.5
覆盖范围:
全球
运营商:
太空探索技术公司
运营商所在国:
美国
制造商(研发单位):
太空探索技术公司
制造商所在国:
美国
使用方式:
暂无
Satellite Introduction
星链(Starlink)计划是由太空探索技术公司(SpaceX)提出的一个巨型低轨卫星互联网星座项目,计划在2019年至2024年间在太空搭建由约1.2万颗卫星组成的“星链”网络,其中1584颗将部署在地球上空550千米处的近地轨道,并从2020年开始工作。该卫星仍在工作。
2D Orbit Map
3D Orbit Map
Orbit Altitude Analysis Chart
Orbit Inclination Analysis Chart
Orbit Comprehensive Analysis Chart
View Comprehensive Chart